Temperature
19 19 19 19 19 19 19 19 19 19 19 19 19 18 18 18 18 18 18 18 18 18 18 18 18 18 18 18 18 18 18 18 18 18 18 18 18 18 18 18 18 18 18
19 19 19 19 19 19 19 19 19 19 19 19 18 18 18 18 18 18 18 18 18 18 18 18 18 18 18 18 18 18 18 18 18 18 18 18 18 18 18 18 18 17 17
20 19 19 19 19 19 19 19 19 18 18 18 18 18 18 18 18 18 18 18 18 18 18 18 18 18 18 18 18 18 18 18 18 18 18 18 17 17 17 17 17 17 17
20 19 19 19 19 19 19 18 18 18 18 18 18 18 18 18 18 18 18 18 18 18 18 18 18 18 18 18 18 18 18 18 18 18 18 18 17 17 17 17 17 17 17
20 20 19 19 19 19 19 19 19 19 18 18 18 18 18 18 18 18 18 18 18 18 18 18 18 18 18 18 18 17 17 17 17 18 18 18 18 17 17 17 17 17 17
20 20 20 19 19 19 19 19 19 18 18 18 18 18 18 18 18 18 18 18 18 18 18 18 18 18 18 18 18 17 17 17 17 17 17 17 18 18 17 17 17 17 17
20 20 19 19 19 19 19 19 18 18 18 18 18 18 18 18 18 18 18 18 18 18 18 18 18 18 18 18 18 17 17 17 17 17 17 17 18 18 17 17 17 17 17
20 20 20 19 19 19 19 19 18 18 19 18 18 18 18 18 18 18 18 18 18 18 18 18 18 18 18 18 18 17 17 17 17 18 18 18 18 18 18 17 17 17 17
20 20 20 19 19 19 19 19 18 18 18 18 18 18 18 18 18 18 18 18 18 18 18 18 18 18 18 18 18 17 17 17 17 18 18 18 18 18 18 18 17 17 17
20 20 19 19 19 19 19 19 19 18 18 18 18 18 18 18 18 18 18 18 18 18 18 18 18 18 18 18 17 17 17 17 17 18 18 18 18 18 18 18 18 17 17
19 19 19 19 19 19 19 19 19 18 18 18 18 18 18 18 18 18 18 18 18 18 18 18 18 18 18 18 17 17 17 17 17 18 18 18 18 18 18 18 18 18 17
19 19 19 19 19 19 19 19 19 18 18 18 18 18 18 18 18 18 18 18 18 18 18 18 18 18 18 18 18 17 17 17 18 18 18 18 18 18 18 18 18 17 17
19 19 19 19 19 19 19 19 19 18 18 18 18 18 18 18 18 18 18 18 18 18 18 18 18 18 18 18 18 18 18 18 18 18 18 18 18 18 18 18 18 18 18
20 20 19 19 19 19 19 19 18 18 18 18 18 18 18 18 18 18 18 18 18 18 18 18 18 18 18 18 18 18 18 18 18 18 18 18 18 18 18 18 18 18 18
20 20 19 19 19 19 19 19 18 18 18 18 18 18 18 18 18 18 18 18 18 18 18 18 18 18 18 18 18 18 18 18 18 18 18 18 18 18 18 18 18 18 17
20 20 19 19 19 19 19 19 18 18 18 18 18 18 18 18 18 18 18 18 18 18 18 18 18 18 18 18 18 18 18 18 18 18 18 18 18 18 18 18 18 17 17
20 20 20 19 19 19 19 19 19 19 18 18 18 18 18 18 18 18 18 18 18 18 18 18 18 18 18 18 18 18 18 18 18 18 18 18 18 18 17 18 17 17 17
20 20 20 20 19 19 19 19 19 18 18 18 18 18 18 18 18 18 18 18 18 18 18 18 18 18 18 18 18 18 18 18 18 18 18 18 18 18 18 18 17 17 17
20 20 20 20 19 19 19 19 19 18 18 18 18 18 18 18 18 18 18 18 18 18 18 18 18 18 18 18 18 18 18 18 18 18 18 18 18 18 18 18 18 17 17
21 20 20 20 19 19 19 19 19 18 18 18 18 18 18 18 18 18 18 18 18 18 18 18 18 18 18 18 18 18 18 18 18 18 18 18 17 17 18 18 17 17 17
21 20 20 20 20 19 19 19 19 19 18 18 18 18 18 18 18 18 18 18 18 18 18 18 18 18 18 18 18 18 18 18 17 17 17 17 17 17 17 17 17 17 17
21 21 20 20 20 20 19 19 19 19 18 18 18 18 18 18 18 18 18 18 18 18 18 18 18 18 18 18 18 18 17 17 17 17 17 17 17 17 17 17 17 17 17
21 21 21 20 20 20 19 19 19 18 18 18 18 18 18 18 18 18 18 18 18 18 18 18 18 18 18 17 17 17 17 17 17 17 17 17 17 17 17 17 17 17 17
21 21 21 20 20 20 19 19 19 18 18 18 18 18 18 18 18 18 18 18 18 18 18 18 18 17 17 17 17 17 17 17 17 17 17 17 17 17 17 17 17 17 17
22 21 21 20 20 20 19 19 19 18 19 18 18 18 18 18 18 18 18 18 18 18 18 18 17 17 17 17 17 17 17 17 17 17 16 17 17 16 16 16 16 16 16
21 21 21 20 20 20 19 19 19 19 19 18 18 18 18 18 18 18 18 18 18 17 17 17 17 17 17 17 17 17 17 17 17 17 16 16 16 16 16 16 16 16 16
Wind_Speed
2 5 11 12 13 14 14 14 14 14 14 14 15 15 15 16 16 17 17 17 18 18 18 18 18 19 19 19 19 18 19 19 19 19 19 18 18 17 17 17 16 15 17
7 8 12 13 13 14 14 14 14 13 13 14 14 15 15 15 16 16 16 17 17 17 18 18 18 17 18 18 18 18 18 18 18 18 18 17 17 17 16 16 15 14 16
9 9 12 13 13 14 14 14 13 13 13 13 13 14 14 15 15 15 16 16 16 17 17 17 17 16 16 17 17 17 17 17 17 17 16 14 15 16 16 16 16 16 16
10 10 12 13 13 13 14 13 13 12 13 13 13 13 13 13 14 14 15 15 15 15 16 16 15 15 15 15 15 15 16 16 16 15 12 12 13 16 17 16 16 15 15
9 10 12 13 13 13 13 13 12 12 12 12 12 13 13 13 13 13 14 15 14 14 14 14 14 13 14 13 13 14 14 14 14 12 11 11 12 15 16 16 15 15 15
8 10 12 13 13 13 12 12 11 11 10 11 12 13 13 13 13 13 13 14 14 13 13 13 12 12 12 13 12 12 12 12 11 10 11 12 13 15 15 15 15 14 14
8 9 12 13 13 12 12 11 11 11 11 12 13 13 12 12 12 12 12 12 12 12 12 11 11 11 11 11 10 10 10 10 10 10 11 11 13 15 15 15 15 14 14
10 9 11 13 13 12 11 11 11 11 12 12 13 13 12 12 12 12 12 12 11 11 11 10 10 9 9 8 8 8 9 9 10 10 10 11 14 15 15 15 14 14 14
10 8 7 9 11 12 12 11 11 11 12 12 13 12 11 12 11 11 11 11 11 10 10 10 9 8 7 6 6 6 8 9 9 9 11 10 13 15 15 15 14 14 13
8 7 6 7 8 9 10 10 10 11 11 12 11 11 11 11 10 10 10 10 10 10 9 9 8 7 6 6 5 6 6 7 8 8 10 11 14 16 15 15 14 14 13
8 6 6 5 5 6 8 9 9 10 10 10 9 10 9 7 7 7 8 9 8 8 8 8 7 6 4 4 4 4 4 4 6 8 10 13 15 15 15 15 14 14 14
7 7 6 6 6 6 6 7 6 6 7 7 7 7 7 6 6 6 8 8 7 7 7 6 6 4 3 2 2 2 3 5 5 8 11 15 16 15 16 15 15 14 14
8 7 7 7 7 6 4 6 4 4 5 6 6 7 6 5 5 5 5 5 5 5 4 4 4 4 4 3 2 3 4 5 6 8 11 15 16 16 16 16 15 15 15
7 6 6 6 6 5 6 5 5 4 4 4 5 7 7 4 4 4 3 4 4 4 3 3 3 4 4 5 5 4 4 5 6 9 11 16 17 17 17 17 16 15 15
7 6 5 6 6 5 5 4 5 4 4 4 5 7 7 5 4 4 3 4 4 4 4 3 4 3 3 4 4 4 4 5 7 9 11 16 17 17 17 17 16 16 16
7 6 5 5 5 5 4 3 4 4 5 5 5 7 8 6 4 3 3 2 3 4 5 4 3 2 2 2 2 4 4 5 7 9 11 14 17 17 17 17 17 17 17
7 6 5 5 4 4 4 3 4 4 5 3 4 6 7 6 5 4 3 3 3 4 4 3 2 2 1 1 2 3 3 5 6 8 10 11 13 16 17 17 18 18 18
7 7 6 6 5 4 3 3 3 4 4 3 5 6 6 6 6 4 3 2 3 3 2 2 2 1 1 1 1 1 2 2 4 6 8 9 10 11 13 16 17 18 18
8 7 6 5 5 4 3 2 3 3 3 3 4 4 5 6 6 4 3 2 3 2 2 3 2 2 2 1 2 1 1 1 2 4 5 7 9 9 10 13 15 17 18
8 7 6 5 5 4 2 2 1 1 1 2 3 4 5 5 5 4 3 3 2 2 1 1 2 2 2 2 2 1 1 2 2 2 4 5 7 8 9 9 11 13 16
7 7 6 6 4 3 2 2 2 1 1 1 2 3 4 4 5 4 2 2 2 2 3 2 2 2 1 1 1 1 2 1 1 2 2 2 3 5 7 7 8 8 10
8 7 6 6 5 4 3 2 2 2 1 1 1 2 2 3 4 4 3 3 2 2 2 2 2 1 1 1 2 1 1 3 2 1 1 2 3 3 3 5 7 7 7
8 8 7 6 6 5 4 2 2 2 2 1 0 1 1 2 3 3 4 4 3 3 2 2 3 3 2 1 2 3 3 3 1 2 1 1 1 2 2 3 4 5 6
9 8 7 6 5 4 4 3 4 3 2 3 2 2 1 1 2 2 3 3 3 3 3 3 3 3 3 2 1 2 2 3 2 1 2 1 1 2 2 2 3 4 5
9 8 7 6 5 4 4 4 4 3 2 2 1 1 1 1 1 2 2 2 3 3 3 3 2 3 3 3 3 2 1 1 2 3 2 2 1 1 2 2 2 3 5
8 8 7 6 5 4 4 4 5 5 4 3 2 2 1 1 1 1 1 1 2 2 3 3 3 3 3 3 3 2 2 2 2 3 3 2 2 2 1 1 2 3 4
Wind_Direction
137 130 116 108 104 102 101 99 97 96 95 96 98 100 102 103 106 109 111 111 111 111 111 110 111 112 115 119 120 121 121 121 122 123 123 123 124 125 124 121 120 119 122
143 129 119 114 110 107 105 103 101 100 99 99 101 103 105 106 106 110 111 112 113 113 112 111 112 114 116 119 122 123 122 122 123 124 124 125 128 130 127 125 124 126 126
130 126 120 117 112 109 108 106 104 104 104 105 106 105 107 110 110 112 114 115 116 115 114 114 113 115 117 119 122 123 123 123 124 123 122 122 127 130 129 128 127 127 127
127 124 121 118 115 112 110 109 108 108 106 108 110 110 111 112 114 114 117 118 119 118 117 118 118 118 119 121 122 124 125 126 126 124 121 124 127 129 130 130 129 130 131
121 123 124 119 117 114 112 110 110 110 110 113 116 117 116 116 116 116 119 122 122 122 121 122 123 123 123 125 126 126 126 128 129 124 126 126 128 134 135 135 135 135 133
125 127 127 123 120 118 114 112 112 113 114 118 124 123 121 120 120 120 120 123 125 125 125 125 125 125 124 126 127 128 127 127 129 129 133 133 135 139 139 140 140 138 137
132 133 133 129 126 123 118 114 113 111 114 119 124 124 121 120 121 123 124 124 125 130 130 128 128 124 125 129 131 129 129 134 135 137 142 143 145 146 145 145 144 144 142
141 142 140 137 134 131 125 121 117 114 117 120 123 123 121 121 121 122 125 127 128 129 133 132 129 126 126 126 127 128 130 135 138 143 150 152 153 152 152 150 148 149 148
140 140 138 140 138 138 133 128 123 119 118 121 124 125 125 125 124 125 127 128 132 137 138 137 137 137 136 136 137 138 140 138 138 151 157 159 160 158 156 154 153 154 154
141 141 138 141 139 140 139 136 130 126 125 128 130 131 131 131 131 131 132 134 137 141 143 143 145 148 150 151 146 142 148 145 149 160 162 167 165 162 160 159 159 159 160
144 149 153 151 146 146 148 141 138 133 133 134 135 136 133 132 135 137 141 141 142 144 148 152 154 160 164 161 159 162 163 158 156 164 168 173 172 169 166 164 165 166 167
151 160 163 160 161 167 157 141 143 140 142 144 146 142 141 146 153 153 155 153 152 154 158 163 168 176 183 193 185 174 169 169 162 168 176 177 176 175 173 171 171 173 174
155 155 155 160 164 165 149 149 153 150 152 154 161 164 161 157 158 158 156 160 165 167 173 182 193 204 209 218 225 214 190 182 172 180 181 182 181 181 179 178 177 178 180
144 146 146 152 154 153 149 155 162 161 161 162 165 159 156 153 155 163 164 177 185 191 199 209 213 222 228 229 214 207 194 184 174 178 183 187 187 186 186 183 182 184 185
142 145 147 143 143 143 140 151 153 160 161 170 169 169 163 155 158 167 181 189 199 196 195 204 216 227 216 212 202 188 185 178 177 178 184 191 193 193 192 190 190 192 193
151 154 149 141 144 139 142 146 152 163 166 170 169 177 173 168 163 158 165 177 202 202 198 196 202 204 205 203 201 191 190 186 186 181 185 192 199 200 199 198 198 199 200
156 150 150 152 146 141 142 152 153 166 162 161 175 176 172 169 165 158 160 174 199 201 193 184 185 180 197 204 212 200 195 193 187 185 185 189 197 203 205 206 206 206 206
153 151 163 155 149 150 147 145 143 158 161 165 166 169 173 170 166 158 164 188 208 191 171 165 169 166 209 207 227 236 208 188 186 188 186 190 195 203 209 212 213 213 212
155 154 154 147 153 160 152 139 144 150 158 168 164 167 173 175 170 162 177 198 194 176 179 188 167 173 187 211 227 240 225 204 201 194 195 197 197 202 206 213 218 220 219
154 153 152 152 158 152 134 103 97 94 128 151 166 178 180 176 173 166 183 196 178 157 175 173 170 174 185 200 224 238 249 229 210 204 204 196 198 204 208 212 215 220 218
156 155 155 153 162 146 132 134 138 159 166 155 187 185 186 180 173 168 178 183 180 178 189 182 169 175 213 158 96 2 345 322 225 224 204 179 187 195 195 204 208 212 220
168 166 162 161 165 165 168 170 168 160 169 179 190 173 185 183 182 180 170 175 181 175 176 180 157 158 225 154 138 114 351 342 335 268 196 185 194 185 185 201 201 206 215
173 174 174 171 170 172 167 138 98 73 55 59 215 217 216 190 187 184 181 176 175 164 178 193 177 165 195 228 162 149 160 220 282 326 293 195 184 190 209 205 203 202 204
177 173 166 167 168 171 160 150 149 151 170 206 200 200 224 199 181 186 187 181 183 177 190 209 189 178 169 203 235 208 177 166 172 265 315 291 204 191 208 216 197 192 198
171 168 165 162 166 165 161 165 155 158 183 191 176 174 215 258 218 203 194 178 185 187 196 201 185 182 183 192 199 203 202 188 171 183 248 281 297 252 212 212 204 191 201
163 161 160 158 166 166 162 172 169 171 173 160 167 177 216 250 265 247 190 168 184 191 197 205 197 194 201 200 197 189 181 189 203 185 210 236 250 262 216 199 212 199 198
Height
1521 1521 1520 1520 1519 1519 1519 1519 1519 1519 1519 1520 1520 1520 1521 1522 1522 1523 1524 1525 1526 1526 1527 1528 1528 1529 1530 1531 1533 1535 1537 1539 1540 1542 1543 1545 1546 1547 1549 1550 1551 1552 1553
1522 1522 1521 1521 1521 1521 1521 1521 1521 1521 1521 1521 1522 1522 1523 1524 1524 1525 1526 1527 1528 1528 1529 1530 1531 1532 1533 1534 1536 1537 1539 1541 1543 1544 1545 1547 1548 1549 1550 1551 1552 1553 1555
1523 1522 1522 1522 1522 1522 1522 1522 1522 1522 1523 1523 1524 1524 1525 1526 1526 1527 1528 1529 1530 1530 1531 1532 1533 1534 1536 1537 1538 1540 1541 1543 1545 1546 1547 1548 1550 1551 1552 1553 1554 1555 1556
1524 1524 1524 1524 1524 1524 1524 1524 1524 1524 1524 1524 1525 1526 1526 1527 1528 1528 1529 1530 1532 1532 1533 1534 1535 1536 1538 1539 1541 1542 1543 1545 1546 1547 1549 1550 1551 1552 1553 1554 1555 1557 1558
1526 1526 1525 1525 1525 1525 1525 1525 1525 1524 1523 1524 1525 1527 1528 1528 1529 1530 1530 1532 1533 1534 1535 1536 1537 1538 1539 1541 1542 1544 1545 1546 1547 1548 1550 1551 1552 1553 1554 1555 1557 1558 1559
1527 1527 1527 1527 1527 1527 1526 1526 1525 1524 1523 1522 1524 1527 1529 1530 1531 1532 1532 1533 1535 1536 1537 1538 1539 1540 1541 1542 1544 1545 1546 1547 1548 1549 1551 1552 1553 1554 1555 1556 1557 1558 1560
1528 1528 1528 1528 1528 1528 1528 1527 1526 1524 1522 1522 1524 1528 1530 1531 1532 1533 1534 1535 1536 1536 1538 1539 1540 1541 1543 1544 1545 1546 1547 1548 1549 1550 1552 1553 1554 1555 1556 1557 1558 1559 1560
1530 1530 1530 1530 1530 1530 1530 1529 1528 1526 1524 1524 1526 1530 1532 1533 1534 1535 1536 1536 1537 1538 1539 1541 1542 1543 1544 1546 1547 1548 1549 1550 1551 1551 1552 1553 1554 1555 1556 1557 1558 1559 1561
1531 1532 1532 1532 1532 1532 1532 1531 1531 1530 1529 1529 1531 1532 1534 1535 1536 1536 1537 1538 1539 1540 1541 1542 1543 1545 1546 1547 1548 1549 1550 1551 1551 1552 1553 1554 1555 1556 1557 1557 1558 1560 1561
1533 1533 1534 1534 1534 1534 1534 1533 1533 1533 1533 1533 1534 1535 1536 1537 1538 1538 1539 1540 1540 1541 1542 1543 1545 1546 1547 1548 1549 1550 1551 1551 1552 1552 1553 1554 1555 1556 1557 1558 1559 1560 1561
1534 1534 1535 1535 1535 1535 1535 1535 1535 1535 1535 1536 1536 1537 1538 1539 1539 1540 1541 1542 1542 1543 1544 1545 1546 1547 1548 1549 1550 1551 1551 1552 1552 1553 1553 1554 1555 1556 1557 1558 1559 1560 1562
1534 1535 1535 1536 1536 1536 1536 1537 1537 1537 1537 1538 1538 1539 1540 1540 1541 1541 1542 1543 1544 1545 1546 1546 1548 1549 1549 1550 1551 1551 1552 1552 1553 1553 1554 1555 1556 1556 1557 1558 1560 1561 1562
1534 1535 1536 1536 1537 1537 1538 1538 1539 1539 1539 1540 1540 1540 1541 1541 1542 1543 1544 1544 1545 1546 1547 1547 1548 1549 1550 1551 1551 1551 1552 1552 1552 1553 1554 1555 1555 1556 1557 1558 1560 1561 1562
1534 1535 1536 1537 1537 1538 1538 1539 1540 1540 1540 1541 1541 1541 1542 1542 1543 1544 1545 1545 1546 1547 1547 1548 1549 1550 1550 1551 1551 1551 1552 1552 1552 1553 1553 1554 1555 1556 1557 1558 1559 1560 1561
1535 1535 1536 1537 1537 1538 1539 1539 1540 1541 1541 1541 1542 1542 1543 1543 1544 1544 1545 1546 1546 1547 1548 1549 1549 1550 1550 1551 1551 1551 1551 1552 1552 1552 1553 1554 1555 1556 1557 1558 1559 1559 1560
1534 1535 1536 1537 1538 1539 1539 1539 1540 1541 1541 1541 1542 1543 1543 1544 1544 1544 1545 1546 1547 1547 1548 1549 1549 1549 1550 1550 1550 1551 1551 1551 1551 1552 1552 1553 1554 1555 1556 1557 1558 1558 1559
1534 1535 1536 1537 1538 1538 1539 1539 1540 1541 1542 1542 1542 1542 1543 1544 1544 1545 1545 1546 1546 1547 1548 1549 1549 1549 1549 1550 1550 1550 1550 1550 1551 1551 1552 1552 1553 1554 1555 1556 1556 1557 1558
1534 1535 1536 1537 1538 1538 1539 1540 1540 1541 1541 1542 1542 1542 1543 1543 1544 1545 1545 1546 1546 1547 1547 1548 1548 1548 1549 1549 1549 1549 1549 1550 1550 1550 1551 1551 1552 1552 1553 1554 1554 1555 1556
1534 1535 1536 1537 1538 1538 1539 1540 1540 1541 1541 1541 1542 1542 1543 1543 1544 1544 1544 1545 1546 1546 1546 1547 1547 1547 1548 1548 1548 1548 1548 1549 1549 1549 1549 1550 1550 1551 1551 1552 1552 1553 1554
1535 1536 1536 1536 1537 1538 1539 1539 1540 1540 1541 1541 1541 1542 1542 1542 1543 1543 1543 1544 1545 1545 1545 1546 1546 1546 1547 1547 1547 1547 1547 1548 1548 1548 1548 1548 1548 1549 1549 1549 1550 1551 1551
1535 1535 1536 1536 1537 1538 1538 1539 1539 1540 1540 1540 1541 1541 1541 1541 1542 1542 1542 1543 1543 1543 1544 1544 1545 1545 1545 1546 1546 1546 1546 1546 1546 1546 1546 1546 1546 1547 1547 1547 1547 1548 1549
1534 1535 1535 1536 1536 1537 1538 1538 1539 1539 1540 1540 1540 1540 1540 1540 1540 1541 1541 1541 1542 1542 1542 1543 1543 1543 1544 1544 1544 1544 1545 1546 1544 1545 1545 1544 1544 1545 1545 1545 1545 1545 1546
1533 1534 1535 1535 1536 1537 1538 1538 1538 1539 1539 1539 1539 1539 1539 1539 1539 1539 1539 1540 1540 1540 1541 1541 1541 1541 1542 1542 1543 1543 1543 1542 1543 1543 1542 1542 1542 1542 1542 1543 1543 1543 1543
1532 1534 1534 1535 1536 1537 1537 1538 1537 1537 1537 1538 1538 1538 1538 1538 1538 1538 1538 1538 1538 1538 1538 1539 1539 1539 1540 1540 1541 1541 1541 1541 1541 1540 1541 1540 1540 1540 1540 1540 1540 1540 1541
1532 1533 1534 1535 1535 1536 1536 1537 1537 1536 1536 1537 1537 1537 1537 1537 1537 1536 1536 1536 1536 1536 1536 1537 1537 1537 1537 1538 1538 1538 1538 1538 1538 1538 1537 1537 1538 1538 1538 1538 1538 1538 1538
1531 1532 1533 1534 1534 1535 1535 1535 1536 1536 1535 1536 1536 1536 1535 1535 1535 1535 1535 1534 1534 1534 1534 1534 1535 1535 1535 1535 1536 1536 1536 1536 1535 1535 1535 1534 1534 1535 1535 1535 1535 1535 1535